Weather History for KBIH - March, 2014

Change the Weather History Date:

Sunday, March 9, 2014

  Actual Average Record
Temperature  
Mean Temperature 51 °F 47 °F  
Max Temperature 61 °F 64 °F 83 °F (1972)
Min Temperature 40 °F 30 °F 13 °F (1969)
Degree Days  
Heating Degree Days 14 18  
Month to date heating degree days 135 169  
Since 1 July heating degree days 3085 3376  
Cooling Degree Days 0 0  
Month to date cooling degree days 0 0  
Year to date cooling degree days 0 0  
Growing Degree Days 1 (Base 50)    
Moisture  
Dew Point 23 °F    
Average Humidity 37    
Maximum Humidity 55    
Minimum Humidity 19    
Precipitation  
Precipitation 0.00 in 0.02 in 0.08 in (1963)
Month to date precipitation T 0.20  
Year to date precipitation 1.91 2.10  
Snow  
Snow 0.00 in 0.10 in 0.40 in (1962)
Month to date snowfall 0.0 0.3  
Since 1 July snowfall 0.5 6.2  
Snow Depth 0.00 in    
Sea Level Pressure  
Sea Level Pressure 30.20 in    
Wind  
Wind Speed 4 mph (NNW)    
Max Wind Speed 10 mph    
Max Gust Speed 11 mph    
Visibility 10 miles    
Events      
T = Trace of Precipitation, MM = Missing Value Source: NWS Daily Summary

Daily Weather History Graph

Daily Weather History Graph

Search for Another Location

Airport or City:

Trip Planner

Search our weather history database for the weather conditions in past years. The results will help you decide how hot, cold, wet, or windy it might be!

Date:

Astronomy

Mar. 09, 2014 Rise Set
Actual Time 7:13 AM PDT 6:55 PM PDT
Civil Twilight 6:47 AM PDT 7:21 PM PDT
Nautical Twilight 6:16 AM PDT 7:51 PM PDT
Astronomical Twilight 5:46 AM PDT 8:21 PM PDT
Moon 12:57 PM PDT (3/9) 3:37 AM PDT (3/9)
Length of Visible Light 12h 34m
Length of Day
11h 42m
First Quarter, 62% of the Moon is Illuminated
Mar 9
First Quarter
Mar 16
Full
Mar 23
Last Quarter
Mar 30
New
Apr 7
First Quarter

Hourly Weather History & Observations

Time (PDT) Temp. Windchill Dew Point Humidity Pressure Visibility Wind Dir Wind Speed Gust Speed Precip Events Conditions
12:56 AM 45.0 °F 41.2 °F 21.0 °F 39% 30.22 in 10.0 mi North 6.9 mph - N/A   Clear
1:56 AM 41.0 °F 39.0 °F 21.9 °F 47% 30.22 in 10.0 mi NW 3.5 mph - N/A   Clear
3:56 AM 41.0 °F 35.8 °F 23.0 °F 49% 30.22 in 10.0 mi NW 8.1 mph - N/A   Clear
4:56 AM 42.1 °F 39.2 °F 25.0 °F 51% 30.22 in 10.0 mi WNW 4.6 mph - N/A   Clear
5:56 AM 41.0 °F 37.1 °F 27.0 °F 57% 30.23 in 10.0 mi NW 5.8 mph - N/A   Clear
6:56 AM 41.0 °F 36.4 °F 26.1 °F 55% 30.26 in 10.0 mi North 6.9 mph - N/A   Clear
7:56 AM 44.1 °F - 25.0 °F 47% 30.26 in 10.0 mi Calm Calm - N/A   Clear
8:56 AM 46.0 °F - 27.0 °F 47% 30.27 in 10.0 mi Calm Calm - N/A   Clear
9:56 AM 48.9 °F - 26.1 °F 41% 30.27 in 10.0 mi WNW 5.8 mph - N/A   Clear
10:56 AM 52.0 °F - 26.1 °F 37% 30.27 in 10.0 mi Calm Calm - N/A   Clear
11:56 AM 55.0 °F - 21.9 °F 28% 30.27 in 10.0 mi Calm Calm - N/A   Clear
12:56 PM 55.9 °F - 21.9 °F 27% 30.25 in 10.0 mi WNW 3.5 mph - N/A   Partly Cloudy
1:56 PM 57.0 °F - 19.0 °F 23% 30.22 in 10.0 mi Calm Calm - N/A   Clear
2:56 PM 57.9 °F - 19.0 °F 22% 30.19 in 10.0 mi NW 5.8 mph - N/A   Clear
3:56 PM 59.0 °F - 18.0 °F 20% 30.17 in 10.0 mi North 5.8 mph - N/A   Clear
4:56 PM 61.0 °F - 18.0 °F 19% 30.14 in 10.0 mi NNE 4.6 mph - N/A   Clear
5:56 PM 60.1 °F - 19.0 °F 20% 30.13 in 10.0 mi NNE 5.8 mph - N/A   Clear
6:56 PM 57.9 °F - 19.9 °F 23% 30.12 in 10.0 mi Calm Calm - N/A   Partly Cloudy
7:56 PM 50.0 °F - 26.1 °F 39% 30.13 in 10.0 mi Calm Calm - N/A   Clear
8:56 PM 48.9 °F - 25.0 °F 39% 30.14 in 10.0 mi NE 4.6 mph - N/A   Clear
9:56 PM 48.9 °F - 26.1 °F 41% 30.14 in 10.0 mi West 4.6 mph - N/A   Clear
10:56 PM 44.1 °F 40.8 °F 27.0 °F 51% 30.14 in 10.0 mi NNE 5.8 mph - N/A   Clear
11:56 PM 41.0 °F 38.0 °F 27.0 °F 57% 30.12 in 10.0 mi NNW 4.6 mph - N/A   Clear
12:56 AM 43.0 °F 41.3 °F 24.1 °F 47% 30.10 in 10.0 mi NNE 3.5 mph - N/A   Clear